"TOA5","MOW","CPU:UNC_MeetingWaters","DataHourly"
"TIMESTAMP","SondeTempC","SpCond","DOSat","DOmg","pH","Turb","BattVolt_Min"
"TS","","","","","","",""
"","Smp","Smp","Smp","Smp","Smp","Smp","Min"
"2004-04-01 00:00:00",11.6199998856,0.0689999982715,90.3000030518,9.81000041962,8.27999973297,138.399993896,12.529999733
"2004-04-01 01:00:00",11.6199998856,0.00700000021607,89.3000030518,9.71000003815,8.15999984741,124.400001526,12.5100002289
"2004-04-01 02:00:00",11.5500001907,0.00200000009499,88.5,9.64000034332,8.09000015259,88.4000015259,12.4899997711
"2004-04-01 03:00:00",11.4499998093,0.00200000009499,88.4000015259,9.64999961853,8.05000019073,67.0,12.4799995422
"2004-04-01 04:00:00",11.970000267,0.170000001788,92.8000030518,10.0,7.96999979019,51.0,12.4600000381
"2004-04-01 05:00:00",11.7299995422,0.0920000001788,95.0,10.3000001907,8.13000011444,94.8000030518,12.4300003052
"2004-04-01 06:00:00",11.470000267,0.097999997437,93.4000015259,10.1899995804,8.10000038147,105.0,12.4099998474
"2004-04-01 07:00:00",11.4300003052,0.15000000596,92.8000030518,10.1300001144,7.92999982834,80.1999969482,12.4099998474
"2004-04-01 08:00:00",11.6700000763,0.0750000029802,93.0999984741,10.1000003815,7.94999980927,69.8000030518,12.8599996567
"2004-04-01 09:00:00",11.9799995422,0.00600000005215,93.6999969482,10.1000003815,7.94999980927,60.2999992371,13.4799995422
"2004-04-01 10:00:00",12.7100000381,0.00200000009499,95.1999969482,10.0900001526,7.96999979019,47.5999984741,13.3100004196
"2004-04-01 11:00:00",12.8299999237,0.0010000000475,95.9000015259,10.1400003433,7.98999977112,53.2000007629,13.4300003052
"2004-04-01 12:00:00",14.4200000763,0.218999996781,95.4000015259,9.73999977112,7.92000007629,44.4000015259,12.9499998093
"2004-04-01 13:00:00",16.1200008392,0.490999996662,90.0999984741,8.85999965668,7.75,101.300003052,13.3999996185
"2004-04-01 14:00:00",12.779999733,0.0010000000475,92.5999984741,9.80000019073,8.02000045776,86.9000015259,13.3999996185
"2004-04-01 15:00:00",14.8500003815,0.0,91.1999969482,9.22999954224,6.82000017166,70.0999984741,12.8599996567
"2004-04-01 16:00:00",14.6000003815,0.0,89.8000030518,9.13000011444,6.86000013351,44.9000015259,12.9399995804
"2004-04-01 17:00:00",14.4099998474,0.0,91.5,9.34000015259,6.84999990463,21.2999992371,12.720000267
"2004-04-01 18:00:00",13.0799999237,0.0,90.3000030518,9.5,6.78000020981,19.7999992371,12.6499996185
"2004-04-01 19:00:00",12.3400001526,0.0,89.0,9.52000045776,6.96999979019,21.1000003815,12.6300001144
"2004-04-01 20:00:00",11.6199998856,0.0,98.0999984741,10.6700000763,7.19999980927,22.6000003815,12.6000003815
"2004-04-01 21:00:00",11.1999998093,0.0,99.0,10.8599996567,6.69999980927,19.2999992371,12.5900001526
"2004-04-01 22:00:00",10.5399999619,0.0,99.5,11.0900001526,6.57000017166,14.1000003815,12.5699996948
"2004-04-01 23:00:00",10.470000267,0.0,99.8000030518,11.1499996185,6.55999994278,13.3000001907,12.5500001907
"2004-04-02 00:00:00",10.470000267,0.0,99.8000030518,11.1499996185,6.94999980927,14.8999996185,12.5399999619
"2004-04-02 01:00:00",10.6099996567,0.0,99.8000030518,11.1099996567,6.63000011444,10.1000003815,12.5200004578
"2004-04-02 02:00:00",10.3599996567,0.0,99.9000015259,11.1800003052,6.67999982834,9.19999980927,12.5
"2004-04-02 03:00:00",10.0699996948,0.0,99.9000015259,11.2600002289,6.86999988556,6.30000019073,12.4799995422
"2004-04-02 04:00:00",8.60999965668,0.0,100.599998474,11.7399997711,6.84000015259,5.5,12.4499998093
"2004-04-02 05:00:00",8.46000003815,0.0,100.199996948,11.7399997711,7.11000013351,5.5,12.4099998474
"2004-04-02 06:00:00",7.86000013351,0.0,100.800003052,11.9799995422,7.01000022888,5.0,12.3699998856
"2004-04-02 07:00:00",7.5,0.0,101.099998474,12.1199998856,7.03000020981,12.1999998093,12.3500003815
"2004-04-02 08:00:00",10.5200004578,0.0,99.8000030518,11.1300001144,6.84000015259,3.40000009537,12.9300003052
"2004-04-02 09:00:00",10.9399995804,0.0,99.8000030518,11.029999733,6.88000011444,3.29999995232,13.5100002289
"2004-04-02 10:00:00",12.5399999619,0.0,99.1999969482,10.5699996948,6.61000013351,3.5,13.4799995422
"2004-04-02 11:00:00",12.1400003433,0.0,99.6999969482,10.7100000381,6.69999980927,3.70000004768,13.2399997711
"2004-04-02 12:00:00",13.5200004578,0.0,99.0999984741,10.3199996948,6.65000009537,3.40000009537,13.4499998093
"2004-04-02 13:00:00",14.8800001144,0.0,98.9000015259,10.0,5.96999979019,4.19999980927,12.970000267
"2004-04-02 14:00:00",14.0799999237,0.0,99.4000015259,10.220000267,5.65000009537,4.90000009537,12.779999733
"2004-04-02 15:00:00",13.5100002289,0.0,99.3000030518,10.3500003815,5.65000009537,3.40000009537,12.6899995804
"2004-04-02 16:00:00",13.0799999237,0.0,99.5,10.4600000381,5.80000019073,2.70000004768,12.6800003052
"2004-04-02 17:00:00",12.6300001144,0.0,99.5999984741,10.5900001526,6.07000017166,3.29999995232,12.6599998474
"2004-04-02 18:00:00",12.2100000381,0.0,99.6999969482,10.6899995804,6.73000001907,3.20000004768,12.6300001144
"2004-04-02 19:00:00",11.5100002289,0.0,99.9000015259,10.8900003433,6.61999988556,3.59999990463,12.6099996567
"2004-04-02 20:00:00",11.0699996948,0.0,100.0,11.0100002289,7.01999998093,4.0,12.5900001526
"2004-04-02 21:00:00",9.81000041962,0.0,100.599998474,11.4099998474,6.90000009537,6.19999980927,12.5699996948
"2004-04-02 22:00:00",9.43000030518,0.0,100.300003052,11.4799995422,7.19999980927,4.19999980927,12.5500001907
"2004-04-02 23:00:00",8.17000007629,0.0,101.099998474,11.9300003052,7.17999982834,4.69999980927,12.529999733
"2004-04-03 00:00:00",7.69999980927,0.0,101.199996948,12.0799999237,7.40999984741,5.0,12.5
"2004-04-03 01:00:00",7.84000015259,0.0,101.099998474,12.0200004578,7.23999977112,6.09999990463,12.470000267
"2004-04-03 02:00:00",7.03999996185,0.0,101.400001526,12.3000001907,7.05000019073,4.30000019073,12.4399995804
"2004-04-03 03:00:00",7.07999992371,0.0,101.300003052,12.2700004578,7.28999996185,4.19999980927,12.4099998474
"2004-04-03 04:00:00",6.61000013351,0.0,101.300003052,12.4200000763,7.30000019073,3.70000004768,12.3699998856
"2004-04-03 05:00:00",6.55000019073,0.0,101.0,12.4099998474,7.48000001907,3.59999990463,12.3299999237
"2004-04-03 06:00:00",5.71999979019,0.0,101.800003052,12.7600002289,7.42000007629,4.5,12.3100004196
"2004-04-03 07:00:00",6.21000003815,0.0,101.599998474,12.5799999237,7.51999998093,3.0,12.3100004196
"2004-04-03 08:00:00",9.07999992371,0.0,100.400001526,11.5799999237,7.23999977112,2.70000004768,13.029999733
"2004-04-03 09:00:00",12.3100004196,0.0,99.5999984741,10.6599998474,6.88999986649,2.5,13.4899997711
"2004-04-03 10:00:00",14.1599998474,0.0,99.4000015259,10.2100000381,5.21000003815,3.40000009537,13.4200000763
"2004-04-03 11:00:00",15.0500001907,0.0,99.1999969482,10.0,4.32000017166,2.90000009537,13.0600004196
"2004-04-03 12:00:00",14.7700004578,0.0,99.3000030518,10.0699996948,4.94999980927,2.70000004768,13.3900003433
"2004-04-03 13:00:00",16.1499996185,0.0,98.8000030518,9.72000026703,5.23999977112,1.89999997616,13.3900003433
"2004-04-03 14:00:00",14.8400001526,0.0,99.3000030518,10.0399999619,4.94999980927,1.70000004768,12.7899999619
"2004-04-03 15:00:00",15.9499998093,0.0,98.8000030518,9.76000022888,5.55000019073,1.5,13.3699998856
"2004-04-03 16:00:00",15.75,0.0,98.5999984741,9.77999973297,5.21000003815,1.5,12.7700004578
"2004-04-03 17:00:00",16.0900001526,0.0,98.5999984741,9.72000026703,2.84999990463,1.5,12.7299995422
"2004-04-03 18:00:00",14.6199998856,0.0,98.9000015259,10.0600004196,5.46000003815,0.699999988079,12.6700000763
"2004-04-03 19:00:00",12.2700004578,0.0,99.0999984741,10.6199998856,7.0,1.0,12.6499996185
"2004-04-03 20:00:00",11.470000267,0.0,99.5999984741,10.8699998856,7.17000007629,1.0,12.6099996567
"2004-04-03 21:00:00",10.6300001144,0.0,99.8000030518,11.1099996567,7.11000013351,0.699999988079,12.6000003815
"2004-04-03 22:00:00",10.1300001144,0.0,99.5,11.1999998093,7.26000022888,1.39999997616,12.5699996948
"2004-04-03 23:00:00",9.07999992371,0.0,100.099998474,11.5500001907,7.42999982834,0.800000011921,12.5399999619
"2004-04-04 00:00:00",7.94000005722,0.0,100.900001526,11.970000267,7.42000007629,1.39999997616,12.5200004578
"2004-04-04 01:00:00",7.88000011444,0.0,100.5,11.9399995804,7.40999984741,1.20000004768,12.4899997711
"2004-04-04 02:00:00",8.22000026703,0.0,100.0,11.779999733,7.51000022888,1.20000004768,12.470000267
"2004-04-04 03:00:00",8.15999984741,0.0,100.099998474,11.8100004196,7.44999980927,1.0,12.4499998093
"2004-04-04 04:00:00",8.31000041962,0.0,100.300003052,11.7899999619,7.40000009537,2.0,12.4300003052
"2004-04-04 05:00:00",7.80000019073,0.0,100.400001526,11.9499998093,7.57000017166,0.600000023842,12.3999996185
"2004-04-04 06:00:00",7.15999984741,0.0,100.699996948,12.1800003052,7.44999980927,0.699999988079,12.3599996567
"2004-04-04 07:00:00",9.51000022888,0.0,100.0,11.4200000763,7.48999977112,0.5,12.3400001526
"2004-04-04 08:00:00",11.470000267,0.0,99.8000030518,10.8800001144,6.59999990463,0.699999988079,13.1000003815
"2004-04-04 09:00:00",12.7299995422,0.0,99.5,10.5399999619,5.36000013351,1.10000002384,13.4200000763
"2004-04-04 10:00:00",13.5399999619,0.0,99.5,10.3500003815,3.3599998951,1.60000002384,13.3999996185
"2004-04-04 11:00:00",14.3299999237,0.0,99.1999969482,10.1499996185,2.17000007629,1.70000004768,13.3900003433
"2004-04-04 12:00:00",14.4899997711,0.0,99.6999969482,10.1700000763,0.430000007153,2.0,13.3900003433
"2004-04-04 13:00:00",15.1199998856,0.0,99.3000030518,9.98999977112,0.889999985695,2.20000004768,13.3800001144
"2004-04-04 14:00:00",15.0699996948,0.0,99.5,10.0200004578,1.5,2.0,13.3900003433
"2004-04-04 15:00:00",16.0499992371,0.0,99.3000030518,9.78999996185,0.479999989271,1.89999997616,13.3400001526
"2004-04-04 16:00:00",13.7899999619,0.0,100.0,10.3500003815,0.0799999982119,2.0,12.8299999237
"2004-04-04 17:00:00",12.720000267,0.0,100.0,10.6000003815,2.34999990463,1.79999995232,12.6899995804
"2004-04-04 18:00:00",12.1300001144,0.0,100.099998474,10.7600002289,3.75,2.40000009537,12.6499996185
"2004-04-04 19:00:00",10.779999733,0.0,100.5,11.1400003433,3.53999996185,2.5,12.6099996567
"2004-04-04 20:00:00",9.64999961853,0.0,101.0,11.4899997711,5.32999992371,1.70000004768,12.5900001526
"2004-04-04 21:00:00",8.47999954224,0.0,101.599998474,11.8900003433,6.63000011444,1.79999995232,12.5600004196
"2004-04-04 22:00:00",7.86999988556,0.0,101.699996948,12.0799999237,5.92000007629,1.60000002384,12.5399999619
"2004-04-04 23:00:00",7.07999992371,0.0,102.0,12.3599996567,7.09999990463,1.89999997616,12.529999733
"2004-04-05 00:00:00",6.48000001907,0.0,101.900001526,12.5399999619,7.48999977112,2.09999990463,12.5
"2004-04-05 01:00:00",6.21000003815,0.0,101.400001526,12.5600004196,7.61000013351,2.59999990463,12.4799995422
"2004-04-05 02:00:00",5.17999982834,0.0,102.099998474,12.9799995422,7.65999984741,2.29999995232,12.4399995804
"2004-04-05 03:00:00",4.71000003815,0.0,102.400001526,13.1800003052,7.71999979019,2.09999990463,12.4200000763
"2004-04-05 04:00:00",4.32999992371,0.0,102.699996948,13.3500003815,7.80999994278,1.5,12.3800001144
"2004-04-05 05:00:00",3.73000001907,0.0,102.900001526,13.5900001526,7.69000005722,1.60000002384,12.3500003815
"2004-04-05 06:00:00",3.07999992371,0.0,103.0,13.8299999237,7.71999979019,1.60000002384,12.3100004196
"2004-04-05 07:00:00",5.26999998093,0.0,102.300003052,12.970000267,7.42999982834,1.70000004768,12.2899999619
"2004-04-05 08:00:00",8.88000011444,0.0,100.900001526,11.6999998093,7.11000013351,1.20000004768,13.2600002289
"2004-04-05 09:00:00",10.0100002289,0.0,101.0,11.3999996185,5.57999992371,0.800000011921,13.5600004196
"2004-04-05 10:00:00",11.1000003815,0.0,101.199996948,11.1400003433,1.64999997616,1.70000004768,13.4899997711
"2004-04-05 11:00:00",9.85999965668,0.0010000000475,102.900001526,11.6599998474,8.56000041962,3.5,13.470000267
"2004-04-05 12:00:00",11.8100004196,0.0,97.1999969482,10.5200004578,5.65999984741,2.09999990463,13.4600000381
"2004-04-05 13:00:00",14.1300001144,0.0,98.8000030518,10.1599998474,-0.899999976158,2.29999995232,13.4399995804
"2004-04-05 14:00:00",15.1099996567,0.0,100.599998474,10.1300001144,-1.99000000954,2.90000009537,13.3999996185
"2004-04-05 15:00:00",15.8000001907,0.0,100.300003052,9.93999958038,-2.49000000954,3.70000004768,13.3599996567
"2004-04-05 16:00:00",15.3199996948,0.0,99.5,9.97000026703,-2.19000005722,3.09999990463,12.8800001144
"2004-04-05 17:00:00",14.6499996185,0.0,99.9000015259,10.1599998474,-2.02999997139,2.90000009537,12.720000267
"2004-04-05 18:00:00",13.3699998856,0.0,100.199996948,10.470000267,-1.46000003815,2.20000004768,12.6800003052
"2004-04-05 19:00:00",10.7299995422,0.0,100.599998474,11.1700000763,5.21999979019,1.79999995232,12.6499996185
"2004-04-05 20:00:00",9.40999984741,0.0,100.800003052,11.5500001907,6.75,2.5,12.6099996567
"2004-04-05 21:00:00",8.85000038147,0.0,101.0,11.720000267,6.86000013351,2.79999995232,12.5900001526
"2004-04-05 22:00:00",7.96000003815,0.0,101.599998474,12.0500001907,6.67000007629,1.5,12.5600004196
"2004-04-05 23:00:00",7.59000015259,0.0,101.300003052,12.1300001144,7.13999986649,1.5,12.5399999619
"2004-04-06 00:00:00",7.0,0.0,101.5,12.3199996948,7.25,1.20000004768,12.5100002289
"2004-04-06 01:00:00",6.42000007629,0.0,101.699996948,12.529999733,7.32000017166,1.60000002384,12.4899997711
"2004-04-06 02:00:00",5.86000013351,0.0,101.900001526,12.7299995422,7.40999984741,2.20000004768,12.4600000381
"2004-04-06 03:00:00",4.73000001907,0.0,102.599998474,13.1999998093,7.11000013351,2.40000009537,12.4300003052
"2004-04-06 04:00:00",4.11999988556,0.0,102.900001526,13.4399995804,7.36000013351,1.60000002384,12.3900003433
"2004-04-06 05:00:00",3.41000008583,0.0,102.800003052,13.6899995804,7.61000013351,1.60000002384,12.3500003815
"2004-04-06 06:00:00",1.86000001431,0.0,104.400001526,14.5,7.40999984741,1.70000004768,12.3000001907
"2004-04-06 07:00:00",4.76000022888,0.0,102.800003052,13.2100000381,7.44999980927,1.70000004768,12.279999733
"2004-04-06 08:00:00",9.34000015259,0.0,101.5,11.6499996185,1.54999995232,1.60000002384,13.3299999237
"2004-04-06 09:00:00",11.9099998474,0.0,100.699996948,10.8699998856,0.0299999993294,1.60000002384,13.5200004578
"2004-04-06 10:00:00",13.6499996185,0.0,100.400001526,10.4300003052,-1.38999998569,0.899999976158,13.4300003052
"2004-04-06 11:00:00",14.8999996185,0.0,100.199996948,10.1300001144,-2.3599998951,0.800000011921,13.3900003433
"2004-04-06 12:00:00",16.3899993896,0.0,99.5999984741,9.75,-2.61999988556,1.20000004768,13.3500003815
"2004-04-06 13:00:00",17.7199993134,0.0,99.0999984741,9.43999958038,-3.19000005722,1.79999995232,13.3199996948
"2004-04-06 14:00:00",18.0799999237,0.0,99.5999984741,9.42000007629,-3.31999993324,1.89999997616,13.2700004578
"2004-04-06 15:00:00",18.8700008392,0.0,99.4000015259,9.23999977112,-3.77999997139,19.2999992371,13.220000267
"2004-04-06 16:00:00",17.2700004578,0.0,99.0999984741,9.52999973297,-2.96000003815,1.20000004768,12.8500003815
"2004-04-06 17:00:00",16.6499996185,0.0,99.4000015259,9.68000030518,-2.76999998093,0.899999976158,12.7600002289
"2004-04-06 18:00:00",14.9600000381,0.0,99.4000015259,10.029999733,1.89999997616,0.899999976158,12.6999998093
"2004-04-06 19:00:00",13.0900001526,0.0,99.4000015259,10.4499998093,6.61999988556,0.899999976158,12.6599998474
"2004-04-06 20:00:00",11.5699996948,0.0,99.6999969482,10.8500003815,6.73999977112,1.0,12.6300001144
"2004-04-06 21:00:00",10.8999996185,0.0,99.9000015259,11.0399999619,6.90999984741,1.20000004768,12.6000003815
"2004-04-06 22:00:00",10.2600002289,0.0,100.0,11.220000267,7.05000019073,1.0,12.5699996948
"2004-04-07 00:00:00",9.56999969482,0.0,100.400001526,11.4499998093,7.11000013351,3.0,12.5500001907
"2004-04-07 01:00:00",8.03999996185,0.0,101.400001526,12.0,6.88999986649,1.20000004768,12.5100002289
"2004-04-07 02:00:00",7.90999984741,0.0,101.199996948,12.0100002289,7.11000013351,1.70000004768,12.4899997711
"2004-04-07 03:00:00",7.38999986649,0.0,101.199996948,12.1700000763,7.09999990463,1.60000002384,12.470000267
"2004-04-07 04:00:00",6.26000022888,0.0,102.0,12.6099996567,7.03999996185,1.5,12.4300003052
"2004-04-07 05:00:00",6.86999988556,0.0,101.400001526,12.3500003815,7.36999988556,1.70000004768,12.4099998474
"2004-04-07 06:00:00",8.56000041962,0.0,93.5,10.9200000763,8.81999969482,2.70000004768,12.3699998856
"2004-04-07 07:00:00",8.77000045776,0.0,93.5,10.8699998856,9.05000019073,3.79999995232,12.3400001526
"2004-04-07 08:00:00",8.06000041962,0.0,100.800003052,11.9200000763,8.97999954224,2.0,12.3599996567
"2004-04-07 09:00:00",11.1400003433,0.0,98.8000030518,10.8599996567,8.88000011444,1.29999995232,13.1499996185
"2004-04-07 10:00:00",16.1299991608,0.0,96.0999984741,9.46000003815,4.69999980927,1.10000002384,13.4099998474
"2004-04-07 11:00:00",20.4099998474,0.0,97.3000030518,8.77000045776,-2.95000004768,1.39999997616,13.2700004578
"2004-04-07 12:00:00",19.8899993896,0.0,98.0999984741,8.93999958038,-2.93000006676,0.300000011921,13.1999998093
"2004-04-07 13:00:00",22.6100006104,0.0,97.1999969482,8.39999961853,-3.96000003815,0.699999988079,13.1499996185
"2004-04-07 14:00:00",23.3400001526,0.0,97.0999984741,8.27999973297,-4.13000011444,0.800000011921,13.1199998856
"2004-04-07 15:00:00",23.7600002289,0.0,97.3000030518,8.22999954224,-4.32000017166,0.600000023842,13.0799999237
"2004-04-07 16:00:00",23.7999992371,0.0,97.4000015259,8.22999954224,-3.93000006676,0.899999976158,13.0500001907
"2004-04-07 17:00:00",22.8899993896,0.0,97.5,8.38000011444,-4.44000005722,1.0,13.0
"2004-04-07 18:00:00",20.3500003815,0.0,97.6999969482,8.81999969482,-2.80999994278,1.0,12.7600002289
"2004-04-07 19:00:00",18.4699993134,0.0,97.5,9.14999961853,5.63000011444,3.79999995232,12.6999998093
"2004-04-07 20:00:00",16.7299995422,0.0,98.0,9.52999973297,6.13000011444,10.1000003815,12.6700000763
"2004-04-07 21:00:00",15.3500003815,0.0,98.0999984741,9.81999969482,6.65000009537,22.0,12.6400003433
"2004-04-07 22:00:00",14.4499998093,0.0,98.4000015259,10.0399999619,6.69999980927,34.4000015259,12.6199998856
"2004-04-07 23:00:00",13.7899999619,0.0,98.4000015259,10.1899995804,6.80000019073,35.2999992371,12.5799999237
"2004-04-08 00:00:00",13.3400001526,0.0,98.8000030518,10.3299999237,6.59999990463,29.8999996185,12.5600004196
"2004-04-08 01:00:00",12.8900003433,0.0,98.5999984741,10.4200000763,6.90999984741,24.7999992371,12.5399999619
"2004-04-08 02:00:00",12.1999998093,0.0,99.0,10.6199998856,6.92999982834,15.1000003815,12.5200004578
"2004-04-08 03:00:00",11.3800001144,0.0,99.1999969482,10.8400001526,7.03999996185,11.0,12.4899997711
"2004-04-08 04:00:00",11.4099998474,0.0,99.0,10.8100004196,7.15000009537,8.30000019073,12.470000267
"2004-04-08 05:00:00",10.8599996567,0.0,99.4000015259,10.9899997711,6.94999980927,5.90000009537,12.4499998093
"2004-04-08 06:00:00",10.8599996567,0.0,99.0,10.9600000381,7.19000005722,4.5,12.4300003052
"2004-04-08 07:00:00",10.3599996567,0.0,99.5,11.1300001144,7.09000015259,3.0,12.4099998474
"2004-04-08 08:00:00",11.2399997711,0.0,99.0,10.8599996567,6.88000011444,2.40000009537,12.4099998474
"2004-04-08 09:00:00",13.5399999619,0.0,98.0999984741,10.220000267,6.48999977112,1.5,12.779999733
"2004-04-08 10:00:00",14.5500001907,0.0,98.1999969482,10.0,6.38000011444,1.20000004768,12.8299999237
"2004-04-08 11:00:00",17.3500003815,0.0,97.4000015259,9.35000038147,4.88000011444,1.20000004768,13.0600004196
"2004-04-08 12:00:00",19.5499992371,0.0,97.1999969482,8.92000007629,1.21000003815,1.29999995232,13.2299995422
"2004-04-08 13:00:00",22.6299991608,0.0,96.1999969482,8.31000041962,-1.92999994755,1.20000004768,13.1700000763
"2004-04-08 14:00:00",23.9599990845,0.0,96.0999984741,8.10000038147,-3.54999995232,1.29999995232,13.1199998856
"2004-04-08 15:00:00",22.1100006104,0.0,96.8000030518,8.44999980927,-2.17000007629,1.10000002384,13.1000003815
"2004-04-08 16:00:00",22.2999992371,0.0,96.6999969482,8.40999984741,-2.77999997139,2.0,13.0900001526
"2004-04-08 17:00:00",20.8299999237,0.0,97.1999969482,8.68999958038,-1.14999997616,1.5,12.8400001526
"2004-04-08 18:00:00",20.3999996185,0.0,96.8000030518,8.72999954224,-0.159999996424,1.5,12.779999733
"2004-04-08 19:00:00",19.4099998474,0.0,97.0999984741,8.93000030518,2.27999997139,1.29999995232,12.6899995804
"2004-04-08 20:00:00",18.0300006866,0.0,97.3000030518,9.21000003815,4.42000007629,1.0,12.6599998474
"2004-04-08 21:00:00",16.2999992371,0.0,97.4000015259,9.55000019073,6.34999990463,1.0,12.6400003433
"2004-04-08 22:00:00",15.3800001144,0.0,97.5999984741,9.76000022888,6.59000015259,1.20000004768,12.6099996567
"2004-04-08 23:00:00",14.8900003433,0.0,97.6999969482,9.88000011444,6.65999984741,1.39999997616,12.5799999237
"2004-04-09 00:00:00",14.6199998856,0.0,97.8000030518,9.94999980927,6.71000003815,1.5,12.5699996948
"2004-04-09 01:00:00",14.3299999237,0.0,97.8000030518,10.0,6.82000017166,1.5,12.5500001907
"2004-04-09 02:00:00",14.1199998856,0.0,97.9000015259,10.0600004196,6.90000009537,1.5,12.529999733
"2004-04-09 03:00:00",13.9399995804,0.0,98.0,10.1099996567,6.88999986649,1.0,12.5200004578
"2004-04-09 04:00:00",13.3400001526,0.0,98.3000030518,10.279999733,6.84000015259,1.10000002384,12.5
"2004-04-09 05:00:00",13.1599998474,0.0,98.3000030518,10.3199996948,6.90999984741,0.899999976158,12.470000267
"2004-04-09 06:00:00",12.7600002289,0.0,98.5,10.4399995804,6.90000009537,0.899999976158,12.4600000381
"2004-04-09 07:00:00",12.0200004578,0.0,98.8000030518,10.6499996185,6.94999980927,0.800000011921,12.4399995804
"2004-04-09 08:00:00",13.1199998856,0.0,98.8000030518,10.3800001144,6.23000001907,1.0,12.4200000763
"2004-04-09 09:00:00",15.5799999237,0.0,98.5,9.81000041962,4.25,0.800000011921,13.1899995804
"2004-04-09 10:00:00",17.7199993134,0.0,98.3000030518,9.35999965668,-0.469999998808,2.90000009537,13.3000001907
"2004-04-09 11:00:00",19.4799995422,0.0,98.3000030518,9.02999973297,-3.18000006676,1.10000002384,13.2299995422
"2004-04-09 12:00:00",20.1200008392,0.0,97.9000015259,8.88000011444,-3.25,1.10000002384,13.1999998093
"2004-04-09 13:00:00",21.5599994659,0.0,97.6999969482,8.61999988556,-3.71000003815,1.20000004768,13.1899995804
"2004-04-09 14:00:00",22.2800006866,0.0,97.8000030518,8.51000022888,-4.13000011444,1.70000004768,13.1700000763
"2004-04-09 15:00:00",22.8700008392,0.0,98.4000015259,8.47000026703,-4.51000022888,1.5,13.1300001144
"2004-04-09 16:00:00",22.7900009155,0.0,98.6999969482,8.5,-4.65999984741,2.59999990463,13.0900001526
"2004-04-09 17:00:00",21.8099994659,0.0,97.9000015259,8.59000015259,-4.30999994278,1.20000004768,12.8000001907
"2004-04-09 18:00:00",19.9200000763,0.0,98.0,8.92000007629,-1.88999998569,1.10000002384,12.7399997711
"2004-04-09 19:00:00",18.4899997711,0.0,98.0,9.18000030518,3.06999993324,0.899999976158,12.6700000763
"2004-04-09 20:00:00",16.3999996185,0.0,98.1999969482,9.60999965668,5.84999990463,0.800000011921,12.6499996185
"2004-04-09 21:00:00",14.8800001144,0.0,98.5,9.96000003815,6.38999986649,1.0,12.6199998856
"2004-04-09 22:00:00",13.9899997711,0.0,98.6999969482,10.1700000763,6.57999992371,1.0,12.6000003815
"2004-04-09 23:00:00",13.220000267,0.0,98.9000015259,10.3699998856,6.69000005722,1.79999995232,12.5500001907
"2004-04-10 00:00:00",12.7299995422,0.0,98.9000015259,10.4899997711,6.76999998093,1.79999995232,12.5399999619
"2004-04-10 01:00:00",12.0200004578,0.0,99.3000030518,10.6999998093,6.88000011444,1.60000002384,12.5100002289
"2004-04-10 02:00:00",10.6499996185,0.0,100.300003052,11.1599998474,6.63999986649,2.59999990463,12.4899997711
"2004-04-10 03:00:00",10.4300003052,0.0,100.099998474,11.1899995804,6.69999980927,1.60000002384,12.470000267
"2004-04-10 04:00:00",9.96000003815,0.0,100.300003052,11.3299999237,6.90000009537,1.39999997616,12.4399995804
"2004-04-10 05:00:00",9.07999992371,0.0,100.900001526,11.6400003433,6.80000019073,1.39999997616,12.4099998474
"2004-04-10 06:00:00",9.0,0.0,100.800003052,11.6599998474,6.98999977112,1.5,12.3900003433
"2004-04-10 07:00:00",9.31999969482,0.0,100.300003052,11.5100002289,7.21999979019,1.39999997616,12.3699998856